9W2KHE-13 Weather Reports


time (UTC)temp
C
wind
direction
speed
KPH
gust
KPH
rain 1hr
cm
rain 24hr
cm
rain mn
cm
humidity
%
barometer
mb
20260508040157 31 136 0.0 0.0 0.00 0.00 0.00 67 1011.1
20260508035657 31 146 0.0 0.0 0.00 0.00 0.00 67 1011.2
20260508035154 31 149 0.0 0.0 0.00 0.00 0.00 68 1011.3
20260508034653 31 150 0.0 0.0 0.00 0.00 0.00 68 1011.2
20260508033651 30 149 0.0 0.0 0.00 0.00 0.00 68 1011.2
20260508033150 30 135 0.0 0.0 0.00 0.00 0.00 69 1011.3
20260508032649 30 138 0.0 0.0 0.00 0.00 0.00 69 1011.4
20260508032148 30 135 0.0 0.0 0.00 0.00 0.00 70 1011.5
20260508031647 30 135 0.0 0.0 0.00 0.00 0.00 70 1011.5
20260508031146 30 135 0.0 0.0 0.00 0.00 0.00 71 1011.6
20260508030646 30 135 0.0 0.0 0.00 0.00 0.00 71 1011.6
20260508030144 30 135 0.0 0.0 0.00 0.00 0.00 71 1011.7
20260508025643 30 153 0.0 0.0 0.00 0.00 0.00 72 1011.6
20260508025142 30 143 0.0 0.0 0.00 0.00 0.00 72 1011.8
20260508024641 30 139 0.0 0.0 0.00 0.00 0.00 72 1011.8
20260508024141 30 135 0.0 0.0 0.00 0.00 0.00 72 1011.8
20260508023638 30 141 0.0 0.0 0.00 0.00 0.00 72 1011.9
20260508022637 30 141 0.0 0.0 0.00 0.00 0.00 73 1011.9
20260508022136 29 157 0.0 0.0 0.00 0.00 0.00 73 1012.0
20260508021636 29 156 0.0 0.0 0.00 0.00 0.00 73 1012.1
20260508021133 29 135 0.0 0.0 0.00 0.00 0.00 73 1012.1
20260508020632 29 135 0.0 0.0 0.00 0.00 0.00 73 1012.1
20260508020132 29 151 0.0 0.0 0.00 0.00 0.00 73 1012.0
20260508015631 29 141 0.0 0.0 0.00 0.00 0.00 73 1012.0
20260508015130 29 135 0.0 0.0 0.00 0.00 0.00 73 1012.0
20260508014628 29 135 0.0 0.0 0.00 0.00 0.00 73 1011.9
20260508014127 29 137 0.0 0.0 0.00 0.00 0.00 73 1011.9
20260508013125 29 135 0.0 0.0 0.00 0.00 0.00 73 1011.8
20260508012123 28 135 0.0 0.0 0.00 0.00 0.00 72 1011.7
20260508011623 28 135 0.0 0.0 0.00 0.00 0.00 72 1011.7
20260508011121 28 135 0.0 0.0 0.00 0.00 0.00 72 1011.7
20260508010620 28 135 0.0 0.0 0.00 0.00 0.00 72 1011.7
20260508010120 28 157 0.0 0.0 0.00 0.00 0.00 72 1011.7
20260508005617 28 135 0.0 0.0 0.00 0.00 0.00 72 1011.6
20260508005116 28 143 0.0 0.0 0.00 0.00 0.00 72 1011.5
20260508004615 28 136 0.0 0.0 0.00 0.00 0.00 72 1011.6
20260508004115 28 135 0.0 0.0 0.00 0.00 0.00 72 1011.5
20260508003615 28 135 0.0 0.0 0.00 0.00 0.00 72 1011.4
20260508003113 28 135 0.0 0.0 0.00 0.00 0.00 72 1011.2
20260508002611 28 135 0.0 0.0 0.00 0.00 0.00 72 1011.1
20260508002111 28 135 0.0 0.0 0.00 0.00 0.00 72 1011.0
20260508001609 28 135 0.0 0.0 0.00 0.00 0.00 72 1010.9
20260508000607 28 135 0.0 0.0 0.00 0.00 0.00 72 1010.7
20260508000106 28 135 0.0 0.0 0.00 0.00 0.00 72 1010.6
20260507235605 28 135 0.0 0.0 0.00 0.00 0.00 72 1010.5
20260507235104 28 135 0.0 0.0 0.00 0.00 0.00 72 1010.2
20260507234603 28 135 0.0 0.0 0.00 0.00 0.00 72 1010.1
20260507234102 28 135 0.0 0.0 0.00 0.00 0.00 72 1010.2
20260507233601 28 135 0.0 0.0 0.00 0.00 0.00 72 1010.1
20260507233100 28 135 0.0 0.0 0.00 0.00 0.00 72 1010.3
20260507232600 28 135 0.0 0.0 0.00 0.00 0.00 72 1010.3
20260507232059 28 135 0.0 0.0 0.00 0.00 0.00 72 1010.2
20260507231556 28 135 0.0 0.0 0.00 0.00 0.00 72 1010.1
20260507231055 28 135 0.0 0.0 0.00 0.00 0.00 72 1010.0
20260507230554 28 135 0.0 0.0 0.00 0.00 0.00 72 1009.9
20260507230054 28 135 0.0 0.0 0.00 0.00 0.00 72 1009.9
20260507225554 28 135 0.0 0.0 0.00 0.00 0.00 72 1009.8
20260507225051 28 135 0.0 0.0 0.00 0.00 0.00 72 1009.7
20260507224550 28 135 0.0 0.0 0.00 0.00 0.00 72 1009.8
20260507224050 28 135 0.0 0.0 0.00 0.00 0.00 72 1009.8
20260507223549 28 135 0.0 0.0 0.00 0.00 0.00 72 1009.8
20260507223048 28 135 0.0 0.0 0.00 0.00 0.00 72 1009.9
20260507222546 28 135 0.0 0.0 0.00 0.00 0.00 72 1009.8
20260507222045 28 135 0.0 0.0 0.00 0.00 0.00 72 1009.7
20260507221544 28 135 0.0 0.0 0.00 0.00 0.00 72 1009.7
20260507221043 28 135 0.0 0.0 0.00 0.00 0.00 72 1009.6
20260507220543 28 135 0.0 0.0 0.00 0.00 0.00 72 1009.6
20260507220041 28 135 0.0 0.0 0.00 0.00 0.00 72 1009.6
20260507215540 28 135 0.0 0.0 0.00 0.00 0.00 72 1009.6
20260507215039 28 135 0.0 0.0 0.00 0.00 0.00 72 1009.5
20260507214538 28 135 0.0 0.0 0.00 0.00 0.00 72 1009.5
20260507214038 28 135 0.0 0.0 0.00 0.00 0.00 72 1009.4
20260507213536 28 135 0.0 0.0 0.00 0.00 0.00 71 1009.3
20260507213034 28 135 0.0 0.0 0.00 0.00 0.00 71 1009.4
20260507212533 28 135 0.0 0.0 0.00 0.00 0.00 71 1009.3
20260507212032 28 135 0.0 0.0 0.00 0.00 0.00 71 1009.2
20260507211533 28 135 0.0 0.0 0.00 0.00 0.00 71 1009.3
20260507211030 28 135 0.0 0.0 0.00 0.00 0.00 71 1009.1
20260507210530 28 135 0.0 0.0 0.00 0.00 0.00 71 1009.0
20260507210028 28 135 0.0 0.0 0.00 0.00 0.00 71 1008.9
20260507205527 28 135 0.0 0.0 0.00 0.00 0.00 71 1009.0
20260507205027 28 135 0.0 0.0 0.00 0.00 0.00 71 1009.1
20260507204525 28 135 0.0 0.0 0.00 0.00 0.00 71 1009.0
20260507204024 28 135 0.0 0.0 0.00 0.00 0.00 71 1009.0
20260507203523 28 135 0.0 0.0 0.00 0.00 0.00 71 1009.2
20260507203022 28 135 0.0 0.0 0.00 0.00 0.00 71 1009.0
20260507202522 28 135 0.0 0.0 0.00 0.00 0.00 71 1009.0
20260507202020 28 135 0.0 0.0 0.00 0.00 0.00 71 1009.0
20260507201519 28 135 0.0 0.0 0.00 0.00 0.00 71 1009.0
20260507201018 29 135 0.0 0.0 0.00 0.00 0.00 71 1009.0
20260507200517 29 135 0.0 0.0 0.00 0.00 0.00 71 1009.1
20260507200017 29 135 0.0 0.0 0.00 0.00 0.00 71 1009.2
20260507195514 29 135 0.0 0.0 0.00 0.00 0.00 71 1009.2
20260507194513 29 135 0.0 0.0 0.00 0.00 0.00 71 1009.1
20260507194012 29 135 0.0 0.0 0.00 0.00 0.00 71 1009.3
20260507193512 29 135 0.0 0.0 0.00 0.00 0.00 71 1009.3
20260507192508 29 135 0.0 0.0 0.00 0.00 0.00 70 1009.6
20260507192007 29 135 0.0 0.0 0.00 0.00 0.00 70 1009.6
20260507191506 29 135 0.0 0.0 0.00 0.00 0.00 70 1009.6
20260507185504 30 135 0.0 0.0 0.00 0.00 0.00 69 1009.7
20260507185004 30 135 0.0 0.0 0.00 0.00 0.00 69 1009.7
20260507184503 30 135 0.0 0.0 0.00 0.00 0.00 69 1009.6
20260507184003 30 135 0.0 0.0 0.00 0.00 0.00 69 1009.9
20260507183502 30 135 0.0 0.0 0.00 0.00 0.00 69 1009.9
20260507182959 30 135 0.0 0.0 0.00 0.00 0.00 69 1010.0
20260507182458 30 135 0.0 0.0 0.00 0.00 0.00 69 1010.1
20260507181957 30 135 0.0 0.0 0.00 0.00 0.00 69 1010.2
20260507181456 30 135 0.0 0.0 0.00 0.00 0.00 69 1010.3
20260507180957 30 135 0.0 0.0 0.00 0.00 0.00 69 1010.2
20260507175452 30 135 0.0 0.0 0.00 0.00 0.00 69 1010.5
20260507174951 30 135 0.0 0.0 0.00 0.00 0.00 69 1010.7
20260507174450 30 135 0.0 0.0 0.00 0.00 0.00 69 1010.7
20260507173949 30 135 0.0 0.0 0.00 0.00 0.00 69 1010.6
20260507173449 30 135 0.0 0.0 0.00 0.00 0.00 69 1010.5
20260507172947 30 135 0.0 0.0 0.00 0.00 0.00 69 1010.5
20260507172446 30 135 0.0 0.0 0.00 0.00 0.00 69 1010.4
20260507171946 30 135 0.0 0.0 0.00 0.00 0.00 69 1010.5
20260507171443 30 135 0.0 0.0 0.00 0.00 0.00 69 1010.4
20260507170942 30 135 0.0 0.0 0.00 0.00 0.00 69 1010.5
20260507165941 30 135 0.0 0.0 0.00 0.00 0.00 68 1010.6
20260507165441 30 135 0.0 0.0 0.00 0.00 0.00 68 1010.7
20260507164938 30 135 0.0 0.0 0.00 0.00 0.00 68 1010.8
20260507164437 30 135 0.0 0.0 0.00 0.00 0.00 68 1010.8
20260507163435 30 135 0.0 0.0 0.00 0.00 0.00 68 1011.0
20260507161431 30 135 0.0 0.0 0.00 0.00 0.00 68 1011.0
20260507160930 30 135 0.0 0.0 0.00 0.00 0.00 68 1010.9
20260507160430 30 135 0.0 0.0 0.00 0.00 0.00 68 1010.9
20260507155929 30 135 0.0 0.0 0.00 0.00 0.00 68 1011.0
20260507155427 30 135 0.0 0.0 0.00 0.00 0.00 68 1011.1
20260507154926 30 135 0.0 0.0 0.00 0.00 0.00 68 1011.1
20260507154425 30 135 0.0 0.0 0.00 0.00 0.00 68 1011.2
20260507153925 30 135 0.0 0.0 0.00 0.00 0.00 68 1011.2
20260507153422 30 135 0.0 0.0 0.00 0.00 0.00 68 1011.2
20260507152922 30 135 0.0 0.0 0.00 0.00 0.00 68 1011.1
20260507152421 30 135 0.0 0.0 0.00 0.00 0.00 68 1011.2
20260507151920 30 135 0.0 0.0 0.00 0.00 0.00 68 1011.2
20260507151420 30 135 0.0 0.0 0.00 0.00 0.00 68 1011.2
20260507150918 30 135 0.0 0.0 0.00 0.00 0.00 68 1011.4
20260507150416 30 135 0.0 0.0 0.00 0.00 0.00 68 1011.4
20260507145915 30 135 0.0 0.0 0.00 0.00 0.00 67 1011.5
20260507145414 30 135 0.0 0.0 0.00 0.00 0.00 67 1011.4
20260507144915 30 135 0.0 0.0 0.00 0.00 0.00 67 1011.4
20260507144412 30 135 0.0 0.0 0.00 0.00 0.00 67 1011.3
20260507143911 30 135 0.0 0.0 0.00 0.00 0.00 67 1011.4
20260507143410 30 135 0.0 0.0 0.00 0.00 0.00 67 1011.3
20260507142909 30 135 0.0 0.0 0.00 0.00 0.00 67 1011.3
20260507142409 30 135 0.0 0.0 0.00 0.00 0.00 67 1011.2
20260507141907 30 135 0.0 0.0 0.00 0.00 0.00 67 1011.2
20260507141406 30 135 0.0 0.0 0.00 0.00 0.00 67 1011.2
20260507140404 30 135 0.0 0.0 0.00 0.00 0.00 67 1010.9
20260507135904 30 135 0.0 0.0 0.00 0.00 0.00 67 1011.0
20260507135401 30 135 0.0 0.0 0.00 0.00 0.00 67 1011.0
20260507134900 30 135 0.0 0.0 0.00 0.00 0.00 67 1011.0
20260507132856 30 135 0.0 0.0 0.00 0.00 0.00 66 1010.7
20260507132355 30 135 0.0 0.0 0.00 0.00 0.00 66 1010.4
20260507131854 30 135 0.0 0.0 0.00 0.00 0.00 66 1010.2
20260507131353 30 135 0.0 0.0 0.00 0.00 0.00 66 1010.2
20260507130853 30 135 0.0 0.0 0.00 0.00 0.00 66 1010.2
20260507130351 30 135 0.0 0.0 0.00 0.00 0.00 66 1010.1
20260507125850 30 135 0.0 0.0 0.00 0.00 0.00 66 1010.0
20260507125349 30 135 0.0 0.0 0.00 0.00 0.00 66 1009.8
20260507124849 30 135 0.0 0.0 0.00 0.00 0.00 66 1009.7
20260507124348 30 135 0.0 0.0 0.00 0.00 0.00 66 1009.6
20260507123846 30 135 0.0 0.0 0.00 0.00 0.00 66 1009.5
20260507122844 30 135 0.0 0.0 0.00 0.00 0.00 66 1009.3
20260507122343 30 135 0.0 0.0 0.00 0.00 0.00 66 1009.4
20260507121843 30 135 0.0 0.0 0.00 0.00 0.00 66 1009.2
20260507121340 30 157 0.0 0.0 0.00 0.00 0.00 66 1009.1
20260507120339 30 143 0.0 0.0 0.00 0.00 0.00 66 1009.0
20260507115838 31 135 0.0 0.0 0.00 0.00 0.00 65 1008.9
20260507115338 31 135 0.0 0.0 0.00 0.00 0.00 65 1008.8
20260507114835 31 147 0.0 0.0 0.00 0.00 0.00 65 1008.8
20260507114334 31 135 0.0 0.0 0.00 0.00 0.00 65 1008.7
20260507113833 31 135 0.0 0.0 0.00 0.00 0.00 65 1008.5
20260507112832 31 141 0.0 0.0 0.00 0.00 0.00 65 1008.2
20260507112330 31 135 0.0 0.0 0.00 0.00 0.00 65 1008.1
20260507111829 31 135 0.0 0.0 0.00 0.00 0.00 65 1008.0
20260507110828 31 135 0.0 0.0 0.00 0.00 0.00 65 1008.0
20260507110327 31 135 0.0 0.0 0.00 0.00 0.00 65 1008.0
20260507105825 31 135 0.0 0.0 0.00 0.00 0.00 65 1007.8
20260507105324 31 135 0.0 0.0 0.00 0.00 0.00 65 1007.8
20260507104823 31 135 0.0 0.0 0.00 0.00 0.00 65 1007.7
20260507103822 31 135 0.0 0.0 0.00 0.00 0.00 64 1007.8
20260507103319 31 135 0.0 0.0 0.00 0.00 0.00 64 1007.8
20260507102819 31 139 0.0 0.0 0.00 0.00 0.00 64 1007.9
20260507102318 31 136 0.0 0.0 0.00 0.00 0.00 64 1007.8
20260507101817 31 135 0.0 0.0 0.00 0.00 0.00 64 1007.7
20260507101317 31 135 0.0 0.0 0.00 0.00 0.00 64 1007.5
20260507100814 31 135 0.0 0.0 0.00 0.00 0.00 63 1007.5
20260507100313 32 175 0.0 0.0 0.00 0.00 0.00 63 1007.7
20260507095812 32 165 0.0 0.0 0.00 0.00 0.00 63 1007.7
20260507095311 32 135 0.0 0.0 0.00 0.00 0.00 63 1007.7
20260507094811 32 160 0.0 0.0 0.00 0.00 0.00 63 1007.7
20260507094309 32 135 0.0 0.0 0.00 0.00 0.00 63 1007.7
20260507093808 32 143 0.0 0.0 0.00 0.00 0.00 63 1007.6
20260507093307 32 157 0.0 0.0 0.00 0.00 0.00 63 1007.7
20260507092806 32 135 0.0 0.0 0.00 0.00 0.00 63 1007.6
20260507092307 32 178 0.0 0.0 0.00 0.00 0.00 63 1007.5
20260507091804 32 135 0.0 0.0 0.00 0.00 0.00 63 1007.3
20260507091303 32 135 0.0 0.0 0.00 0.00 0.00 62 1007.3
20260507090802 32 135 0.0 0.0 0.00 0.00 0.00 62 1007.3
20260507090301 32 135 0.0 0.0 0.00 0.00 0.00 62 1007.2
20260507085801 32 157 0.0 0.0 0.00 0.00 0.00 62 1007.2
20260507085258 32 135 0.0 0.0 0.00 0.00 0.00 62 1007.2
20260507084257 32 157 0.0 0.0 0.00 0.00 0.00 61 1007.3
20260507083757 32 157 0.0 0.0 0.00 0.00 0.00 61 1007.2
20260507083255 32 135 0.0 0.0 0.00 0.00 0.00 61 1007.3
20260507081751 32 135 0.0 0.0 0.00 0.00 0.00 60 1007.4
20260507081251 33 135 0.0 0.0 0.00 0.00 0.00 60 1007.5
20260507080248 33 135 0.0 0.0 0.00 0.00 0.00 60 1007.8
20260507075747 33 135 0.0 0.0 0.00 0.00 0.00 60 1007.8
20260507075246 33 136 0.0 0.0 0.00 0.00 0.00 60 1007.7
20260507074745 33 135 0.0 0.0 0.00 0.00 0.00 60 1007.7
20260507073743 33 157 0.0 0.0 0.00 0.00 0.00 60 1007.5
20260507073242 33 135 0.0 0.0 0.00 0.00 0.00 60 1007.6
20260507072741 33 151 0.0 0.0 0.00 0.00 0.00 59 1007.9
20260507072240 33 135 0.0 0.0 0.00 0.00 0.00 59 1007.9
20260507071740 33 139 0.0 0.0 0.00 0.00 0.00 59 1008.0
20260507071238 33 147 0.0 0.0 0.00 0.00 0.00 60 1008.1
20260507070736 33 135 0.0 0.0 0.00 0.00 0.00 60 1008.1
20260507070236 33 151 0.0 0.0 0.00 0.00 0.00 60 1008.1
20260507065735 33 136 0.0 0.0 0.00 0.00 0.00 60 1008.2
20260507065234 33 135 0.0 0.0 0.00 0.00 0.00 60 1008.3
20260507064732 33 139 0.0 0.0 0.00 0.00 0.00 60 1008.3
20260507064231 33 135 0.0 0.0 0.00 0.00 0.00 60 1008.5
20260507063730 33 180 0.0 0.0 0.00 0.00 0.00 60 1008.6
20260507063229 33 135 0.0 0.0 0.00 0.00 0.00 60 1008.6
20260507062729 33 159 0.0 0.0 0.00 0.00 0.00 60 1008.6
20260507062227 33 135 0.0 0.0 0.00 0.00 0.00 60 1008.6
20260507061726 33 150 0.0 0.0 0.00 0.00 0.00 60 1008.5
20260507061225 33 138 0.0 0.0 0.00 0.00 0.00 60 1008.6
20260507055722 33 138 0.0 0.0 0.00 0.00 0.00 60 1009.0
20260507055229 33 137 0.0 0.0 0.00 0.00 0.00 60 1009.0
20260507053721 33 135 0.0 0.0 0.00 0.00 0.00 60 1009.1
20260507052216 33 135 0.0 0.0 0.00 0.00 0.00 61 1009.3
20260507051714 33 177 0.0 0.0 0.00 0.00 0.00 61 1009.4
20260507051215 33 144 0.0 0.0 0.00 0.00 0.00 62 1009.5
20260507050711 32 152 0.0 0.0 0.00 0.00 0.00 62 1009.5
20260507045710 32 135 0.0 0.0 0.00 0.00 0.00 63 1009.7
20260507045214 32 166 0.0 0.0 0.00 0.00 0.00 64 1009.9
20260507044714 32 137 0.0 0.0 0.00 0.00 0.00 65 1010.0
20260507044206 32 157 0.0 0.0 0.00 0.00 0.00 65 1010.1
20260507043705 32 135 0.0 0.0 0.00 0.00 0.00 66 1010.2
20260507041200 31 135 0.0 0.0 0.00 0.00 0.00 68 1010.4
20260507040700 31 136 0.0 0.0 0.00 0.00 0.00 68 1010.5